EDT,Max TemperatureF,Mean TemperatureF,Min TemperatureF,Max Dew PointF,MeanDew PointF,Min DewpointF,Max Humidity, Mean Humidity, Min Humidity, Max Sea Level PressureIn, Mean Sea Level PressureIn, Min Sea Level PressureIn, Max VisibilityMiles, Mean VisibilityMiles, Min VisibilityMiles, Max Wind SpeedMPH, Mean Wind SpeedMPH, Max Gust SpeedMPH,PrecipitationIn, CloudCover, Events, WindDirDegrees
2012-4-1,64,50,35,41,37,34,100,70,34,29.91,29.86,29.78,10,8,0,22,10,31,0.00,3,Fog-Rain,265
2012-4-2,62,55,48,54,32,14,100,53,16,30.04,29.86,29.67,10,10,7,23,15,40,0.01,3,Thunderstorm,317
2012-4-3,73,57,41,39,23,3,42,30,16,30.07,30.04,29.98,10,10,4,12,7,18,0.00,0,Thunderstorm,260
2012-4-4,69,61,53,52,48,41,88,67,49,29.96,29.89,29.76,10,10,7,20,15,29,0.01,1,Rain-Thunderstorm,282
2012-4-5,53,45,37,48,36,27,93,74,61,29.87,29.83,29.79,10,10,10,12,7,,0.00,4,Rain,94
2012-4-6,53,43,33,37,26,12,100,59,19,30.08,29.97,29.88,10,10,7,16,7,24,0.00,0,,39
2012-4-7,57,44,30,18,13,7,44,32,15,30.26,30.19,30.14,10,10,10,18,10,23,0.00,0,,315
2012-4-8,57,49,41,30,19,12,38,31,25,30.19,30.09,29.99,10,10,10,28,14,40,0.00,2,,285
2012-4-9,55,47,39,30,22,16,50,37,28,30.02,29.94,29.85,10,10,0,28,16,39,0.00,3,,284
2012-4-10,51,43,35,25,16,7,52,32,18,29.92,29.84,29.77,10,10,10,31,20,45,0.00,1,,283
2012-4-11,35,30,24,27,21,18,86,71,52,30.08,29.96,29.83,10,10,5,20,14,31,0.00,7,Snow,298
2012-4-12,48,38,28,27,24,21,86,61,37,30.20,30.14,30.07,10,10,10,18,11,25,0.00,3,,320
2012-4-13,55,46,37,27,24,21,60,44,29,30.28,30.25,30.18,10,10,10,9,4,16,0.00,2,,237
2012-4-14,64,54,44,43,33,25,59,45,36,30.31,30.26,30.20,10,10,7,15,10,21,0.00,4,,224
2012-4-15,75,64,53,54,46,41,72,57,29,30.26,30.21,30.17,10,10,7,20,13,26,0.00,0,,238
2012-4-16,78,68,57,54,50,46,82,60,32,30.23,30.20,30.16,10,10,10,20,15,29,0.00,1,,255
2012-4-17,62,56,50,52,40,28,77,56,31,30.34,30.28,30.20,10,10,10,20,12,26,0.00,5,Rain,313
2012-4-18,53,47,41,43,41,28,100,92,38,30.29,30.21,30.14,10,3,0,13,6,16,0.67,8,Fog-Rain,101
2012-4-19,53,48,42,46,45,43,100,94,77,30.17,30.13,30.10,10,7,0,8,3,,0.00,6,Fog,134
2012-4-20,62,52,42,52,48,43,100,87,63,30.10,30.01,29.93,10,10,5,13,6,18,0.00,1,,182
2012-4-21,64,55,46,54,49,45,100,86,56,29.93,29.87,29.82,10,10,0,20,9,25,0.21,5,Fog-Rain-Thunderstorm,270
2012-4-22,44,38,33,45,40,34,100,99,93,29.84,29.69,29.54,10,5,0,21,8,29,0.39,8,Fog-Rain,1
2012-4-23,37,32,28,34,27,18,100,82,48,29.57,29.47,29.42,10,7,0,28,18,46,0.03,6,Fog-Snow,295
2012-4-24,46,38,30,25,18,16,64,45,29,29.79,29.63,29.53,10,10,10,25,19,34,0.00,2,,279
2012-4-25,57,47,37,43,30,21,87,56,35,29.95,29.89,29.79,10,10,10,17,10,23,0.00,2,Rain,252
2012-4-26,55,52,48,55,51,45,100,97,82,29.93,29.84,29.79,10,5,0,29,11,33,1.34,7,Fog-Rain-Thunderstorm,257
2012-4-27,55,46,37,48,32,25,93,59,31,30.21,30.05,29.88,10,10,10,26,16,37,0.00,2,,293
2012-4-28,51,43,35,46,36,25,100,75,49,30.27,30.19,30.12,10,10,0,15,6,24,0.10,5,Fog-Rain-Thunderstorm,156
2012-4-29,69,56,44,55,53,45,100,87,53,30.29,30.23,30.13,10,8,2,18,10,28,0.09,5,Rain-Thunderstorm,256
2012-4-30,60,54,48,61,54,45,100,98,82,30.32,30.26,30.19,10,2,0,15,6,24,0.00,8,Fog-Rain,168